Sitc Xiamen — 3ELU — position and weather

sailwx.info

Track history (hours):
 
Tides and Currents Weather Stations Pressure Air Temp Water Temp Dewpoint Dewpoint Depression Visibility Wind Speed Wind Dir Waves Ship Positions

Sitc Xiamen

Last reported at 2014-Oct-26 06:31 UTC. Time now 2014-Oct-26 07:03 UTC.
Position N 38°59' E 117°47'.

Length 145 m; draft 6.7 m.

Type: Ship (hazmat cat A). MMSI: 355090000.

Date/timePositionNaut miles runAvg speedWind from/ knotsBaromVisibWave heightAir tempDewpointWater temp
2014-Oct-26 06:31N 38°59' E 117°47'9 9.3
2014-Oct-26 05:33N 38°57' E 117°58'148 5.9
2014-Oct-25 04:16N 38°00' E 120°53'1114.6
2014-Oct-25 03:31N 37°58' E 121°07'1414.0
2014-Oct-25 02:32N 37°55' E 121°24'1414.1
2014-Oct-25 01:33N 37°52' E 121°41'1413.7
2014-Oct-25 00:33N 37°49' E 121°58'1414.0
2014-Oct-24 23:33N 37°46' E 122°15'1414.4
2014-Oct-24 22:33N 37°43' E 122°33'1514.0
2014-Oct-24 21:29N 37°33' E 122°47'1515.0
2014-Oct-24 20:29N 37°20' E 122°57'3313.8
2014-Oct-24 18:07N 36°52' E 123°19'1213.2
2014-Oct-24 17:10N 36°42' E 123°28'813.2
2014-Oct-24 16:33N 36°36' E 123°34'1413.7
2014-Oct-24 15:33N 36°25' E 123°44'34713.7
2014-Oct-23 14:12N 33°48' E 130°03'1014.8
2014-Oct-23 13:33N 33°44' E 130°14'1010.2
2014-Oct-23 12:33N 33°39' E 130°24'0 0.0
2014-Oct-23 11:33N 33°39' E 130°24'0 0.0
2014-Oct-23 10:33N 33°39' E 130°24'0 0.0
2014-Oct-23 09:33N 33°39' E 130°24'0 0.0
2014-Oct-23 08:33N 33°39' E 130°24'0 0.0
2014-Oct-23 07:33N 33°39' E 130°24'0 0.0
2014-Oct-23 06:33N 33°39' E 130°24'0 0.0
2014-Oct-23 05:33N 33°39' E 130°24'0 0.0
2014-Oct-23 04:30N 33°39' E 130°24'0 0.0
2014-Oct-23 03:33N 33°39' E 130°24'0 0.0
2014-Oct-23 02:34N 33°39' E 130°24'0 0.0
2014-Oct-23 01:33N 33°39' E 130°24'0 0.0
2014-Oct-23 00:32N 33°39' E 130°24'7 7.3
2014-Oct-22 23:33N 33°41' E 130°16'1313.3
2014-Oct-22 22:33N 33°53' E 130°22'394 8.6
2014-Oct-21 00:31N 31°23' E 123°09'3114.7
2014-Oct-20 22:23N 31°06' E 122°38'1011.5
2014-Oct-20 21:32N 31°06' E 122°27'1312.6
2014-Oct-20 20:31N 31°10' E 122°12'1313.6
2014-Oct-20 19:33N 31°15' E 121°58'1514.3
2014-Oct-20 18:32N 31°20' E 121°42'3 0.8
2014-Oct-20 15:04N 31°20' E 121°39'0 0.0
2014-Oct-20 14:28N 31°20' E 121°39'0 0.0
2014-Oct-20 13:28N 31°20' E 121°39'0 0.0
2014-Oct-20 12:28N 31°20' E 121°39'0 0.0
2014-Oct-20 11:28N 31°20' E 121°39'0 0.0
2014-Oct-20 10:28N 31°20' E 121°39'0 0.0
2014-Oct-20 05:10N 31°20' E 121°39'1 1.3
2014-Oct-20 04:29N 31°20' E 121°40'2613.1
2014-Oct-20 02:29N 31°04' E 122°04'1312.5
2014-Oct-20 01:25N 31°03' E 122°20'  
2014-Oct-17 14:14N 33°40' E 129°50'914.0
2014-Oct-17 13:33N 33°44' E 130°00'1514.4
2014-Oct-17 12:32N 33°52' E 130°15'  
Track history (hours):
 
Tides and Currents Weather Stations Pressure Air Temp Water Temp Dewpoint Dewpoint Depression Visibility Wind Speed Wind Dir Waves Ship Positions

Sitc Xiamen

Last reported at 2014-Oct-26 06:31 UTC. Time now 2014-Oct-26 07:03 UTC.
Position N 38°59' E 117°47'.

Length 145 m; draft 6.7 m.

Type: Ship (hazmat cat A). MMSI: 355090000.

Date/timePositionNaut miles runAvg speedWind from/ knotsBaromVisibWave heightAir tempDewpointWater temp
2014-Oct-26 06:31N 38°59' E 117°47'9 9.3
2014-Oct-26 05:33N 38°57' E 117°58'148 5.9
2014-Oct-25 04:16N 38°00' E 120°53'1114.6
2014-Oct-25 03:31N 37°58' E 121°07'1414.0
2014-Oct-25 02:32N 37°55' E 121°24'1414.1
2014-Oct-25 01:33N 37°52' E 121°41'1413.7
2014-Oct-25 00:33N 37°49' E 121°58'1414.0
2014-Oct-24 23:33N 37°46' E 122°15'1414.4
2014-Oct-24 22:33N 37°43' E 122°33'1514.0
2014-Oct-24 21:29N 37°33' E 122°47'1515.0
2014-Oct-24 20:29N 37°20' E 122°57'3313.8
2014-Oct-24 18:07N 36°52' E 123°19'1213.2
2014-Oct-24 17:10N 36°42' E 123°28'813.2
2014-Oct-24 16:33N 36°36' E 123°34'1413.7
2014-Oct-24 15:33N 36°25' E 123°44'34713.7
2014-Oct-23 14:12N 33°48' E 130°03'1014.8
2014-Oct-23 13:33N 33°44' E 130°14'1010.2
2014-Oct-23 12:33N 33°39' E 130°24'0 0.0
2014-Oct-23 11:33N 33°39' E 130°24'0 0.0
2014-Oct-23 10:33N 33°39' E 130°24'0 0.0
2014-Oct-23 09:33N 33°39' E 130°24'0 0.0
2014-Oct-23 08:33N 33°39' E 130°24'0 0.0
2014-Oct-23 07:33N 33°39' E 130°24'0 0.0
2014-Oct-23 06:33N 33°39' E 130°24'0 0.0
2014-Oct-23 05:33N 33°39' E 130°24'0 0.0
2014-Oct-23 04:30N 33°39' E 130°24'0 0.0
2014-Oct-23 03:33N 33°39' E 130°24'0 0.0
2014-Oct-23 02:34N 33°39' E 130°24'0 0.0
2014-Oct-23 01:33N 33°39' E 130°24'0 0.0
2014-Oct-23 00:32N 33°39' E 130°24'7 7.3
2014-Oct-22 23:33N 33°41' E 130°16'1313.3
2014-Oct-22 22:33N 33°53' E 130°22'394 8.6
2014-Oct-21 00:31N 31°23' E 123°09'3114.7
2014-Oct-20 22:23N 31°06' E 122°38'1011.5
2014-Oct-20 21:32N 31°06' E 122°27'1312.6
2014-Oct-20 20:31N 31°10' E 122°12'1313.6
2014-Oct-20 19:33N 31°15' E 121°58'1514.3
2014-Oct-20 18:32N 31°20' E 121°42'3 0.8
2014-Oct-20 15:04N 31°20' E 121°39'0 0.0
2014-Oct-20 14:28N 31°20' E 121°39'0 0.0
2014-Oct-20 13:28N 31°20' E 121°39'0 0.0
2014-Oct-20 12:28N 31°20' E 121°39'0 0.0
2014-Oct-20 11:28N 31°20' E 121°39'0 0.0
2014-Oct-20 10:28N 31°20' E 121°39'0 0.0
2014-Oct-20 05:10N 31°20' E 121°39'1 1.3
2014-Oct-20 04:29N 31°20' E 121°40'2613.1
2014-Oct-20 02:29N 31°04' E 122°04'1312.5
2014-Oct-20 01:25N 31°03' E 122°20'  
2014-Oct-17 14:14N 33°40' E 129°50'914.0
2014-Oct-17 13:33N 33°44' E 130°00'1514.4
2014-Oct-17 12:32N 33°52' E 130°15'  

Dump ship's entire track history